User: anonymous   Login
Location: Churchill
(58.7670°N, 94.1670°W)
Time: 18:16:25
(UTC-06:00)
Language:

Cosmos 1315 Rocket - Orbit

View from above orbital plane
View from above orbital plane
View from above satellite
View from above satellite

Ground track
Ground track

The orbit data is extracted from the following two-line orbital elements,

1 12904U 81103B   16041.20789424  .00001415  00000-0  98076-4 0  9992
2 12904  81.1776 118.3919 0027569 245.7417 114.0925 15.04740840418670
Epoch (UTC): 10 February 2016 04:59:22
Eccentricity: 0.0027569
inclination: 81.1776°
perigee height: 533 km
apogee height: 571 km
right ascension of ascending node: 118.3919°
argument of perigee: 245.7417°
revolutions per day: 15.04740840
mean anomaly at epoch: 114.0925°
orbit number at epoch: 41867

The dashed part of the orbit path shows where the satellite is in the earth's shadow,  

DLR